Weather History for Sydney, NW

Change the Weather History Date:

Saturday, September 28, 2013

  Actual Average Record
Temperature  
Mean Temperature 69 °F -  
Max Temperature 86 °F 72 °F 93 °F (2008)
Min Temperature 52 °F 56 °F 46 °F (2003)
Cooling Degree Days 4    
Growing Degree Days 19 (Base 50)    
Moisture  
Dew Point 29 °F    
Average Humidity 29    
Maximum Humidity 72    
Minimum Humidity 4    
Precipitation  
Precipitation 0.00 in 0.10 in - ()
Sea Level Pressure  
Sea Level Pressure 29.82 in    
Wind  
Wind Speed 12 mph ()    
Max Wind Speed 30 mph    
Max Gust Speed 43 mph    
Visibility 19.0 miles    
Events      
Averages and records for this station are not official NWS values.
T = Trace of Precipitation, MM = Missing Value Source: Averaged Metar Reports

Daily Weather History Graph

Daily Weather History Graph

Search for Another Location

Airport:

Trip Planner

Search our weather history database for the weather conditions in past years. The results will help you decide how hot, cold, wet, or windy it might be!

Date:

Astronomy

Sep. 28, 2013 Rise Set
Actual Time 5:36 AM AEST 5:55 PM AEST
Civil Twilight 5:11 AM AEST 6:20 PM AEST
Nautical Twilight 4:42 AM AEST 6:50 PM AEST
Astronomical Twilight 4:13 AM AEST 7:19 PM AEST
Moon 1:02 AM AEST (9/28) 11:39 AM AEST (9/28)
Length of Visible Light 13h 08m
Length of Day
12h 18m
Last Quarter, 41% of the Moon is Illuminated
Sep 28
Last Quarter
Oct 5
New
Oct 12
First Quarter
Oct 19
Full
Oct 27
Last Quarter

Hourly Weather History & Observations

Time (AEST) Temp. Dew Point Humidity Pressure Visibility Wind Dir Wind Speed Gust Speed Precip Events Conditions
12:00 AM 59 °F 44 °F 48% 29.96 in 19 mi WNW 8.1 mph - -   Partly Cloudy
12:00 AM 59.0 °F 44.6 °F 59% 29.95 in - WNW 8.1 mph - N/A   Clear
12:30 AM 59.0 °F 44.6 °F 59% 29.95 in - WNW 8.1 mph - N/A   Clear
1:00 AM 58 °F 44 °F 50% 29.94 in - NNW 5.8 mph - -  
1:00 AM 59.0 °F 44.6 °F 59% 29.92 in - NNW 5.8 mph - N/A   Clear
1:30 AM 57.2 °F 44.6 °F 63% 29.92 in - WNW 4.6 mph - N/A   Clear
2:00 AM 58 °F 46 °F 56% 29.92 in - NW 4.6 mph - -  
2:00 AM 57.2 °F 46.4 °F 67% 29.92 in - NW 4.6 mph - N/A   Clear
2:30 AM 55.4 °F 46.4 °F 72% 29.92 in - NNE 4.6 mph - N/A   Clear
3:00 AM 56 °F 45 °F 56% 29.91 in 19 mi WNW 5.8 mph - -   Partly Cloudy
3:00 AM 55.4 °F 44.6 °F 67% 29.89 in - WNW 5.8 mph - N/A   Clear
4:00 AM 55 °F 44 °F 58% 29.88 in - NNW 5.8 mph - -  
4:00 AM 55.4 °F 44.6 °F 67% 29.86 in - NNW 5.8 mph - N/A   Clear
4:30 AM 55.4 °F 44.6 °F 67% 29.86 in - NNW 5.8 mph - N/A   Clear
5:00 AM 53 °F 44 °F 64% 29.87 in - NW 8.1 mph - -  
5:00 AM 53.6 °F 44.6 °F 72% 29.86 in - NW 8.1 mph - N/A   Clear
5:30 AM 53.6 °F 42.8 °F 67% 29.86 in - NW 9.2 mph - N/A   Clear
6:00 AM 53 °F 42 °F 58% 29.88 in 19 mi NW 10.4 mph - -   Partly Cloudy
6:00 AM 53.6 °F 42.8 °F 67% 29.86 in - NW 10.4 mph - N/A   Clear
6:30 AM 55.4 °F 42.8 °F 63% 29.89 in - WNW 11.5 mph - N/A   Clear
7:00 AM 57 °F 42 °F 46% 29.88 in - NW 10.4 mph - -  
7:00 AM 57.2 °F 42.8 °F 59% 29.86 in - NW 10.4 mph - N/A   Clear
7:30 AM 59.0 °F 41.0 °F 51% 29.86 in - NW 10.4 mph - N/A   Clear
8:00 AM 62 °F 39 °F 31% 29.88 in - NW 11.5 mph - -  
8:00 AM 62.6 °F 39.2 °F 42% 29.86 in - NW 11.5 mph - N/A   Clear
8:30 AM 64.4 °F 39.2 °F 40% 29.86 in - NNW 12.7 mph - N/A   Clear
9:00 AM 68 °F 38 °F 22% 29.86 in 19 mi NW 8.1 mph - -   Partly Cloudy
9:00 AM 68.0 °F 37.4 °F 33% 29.83 in - NW 8.1 mph - N/A   Clear
9:30 AM 73.4 °F 35.6 °F 25% 29.83 in - NNW 6.9 mph - N/A   Clear
10:00 AM 76 °F 32 °F 11% 29.81 in - NNW 8.1 mph - -  
10:00 AM 77.0 °F 32.0 °F 19% 29.80 in - NNW 8.1 mph - N/A   Clear
10:30 AM 80.6 °F 24.8 °F 13% 29.77 in - NNW 10.4 mph - N/A   Clear
11:00 AM 82 °F 21 °F 4% 29.76 in - NW 21.9 mph - -  
11:00 AM 82.4 °F 21.2 °F 10% 29.74 in - NW 21.9 mph - N/A   Clear
11:30 AM 84.2 °F 8.6 °F 6% 29.71 in - WNW 8.1 mph - N/A   Clear
11:42 AM 86.0 °F 12.2 °F 6% 29.71 in - WNW 26.5 mph - N/A   Clear
11:50 AM 84.2 °F 8.6 °F 6% 29.71 in - WNW 26.5 mph 42.6 mph N/A   Clear
12:00 PM 84 °F 7 °F 4% 29.72 in 19 mi WNW 28.8 mph - -   Partly Cloudy
12:00 PM 84.2 °F 6.8 °F 5% 29.71 in - WNW 28.8 mph 40.3 mph N/A   Clear
12:30 PM 84.2 °F 10.4 °F 6% 29.71 in - WNW 26.5 mph 38.0 mph N/A   Clear
1:00 PM 84 °F 5 °F 4% 29.71 in - WNW 28.8 mph - -  
1:00 PM 84.2 °F 5.0 °F 5% 29.71 in - WNW 28.8 mph 40.3 mph N/A   Clear
1:30 PM 84.2 °F 6.8 °F 5% 29.68 in - West 29.9 mph 41.4 mph N/A   Clear
2:00 PM 84 °F 11 °F 4% 29.71 in - WNW 27.6 mph - -  
2:00 PM 84.2 °F 10.4 °F 6% 29.68 in - WNW 27.6 mph 39.1 mph N/A   Clear
2:30 PM 84.2 °F 8.6 °F 6% 29.68 in - WNW 25.3 mph 36.8 mph N/A   Clear
3:00 PM 84 °F 15 °F 4% 29.69 in 19 mi WNW 27.6 mph - -   Partly Cloudy
3:00 PM 84.2 °F 14.0 °F 7% 29.68 in - WNW 27.6 mph - N/A   Clear
3:30 PM 82.4 °F 15.8 °F 8% 29.68 in - WNW 24.2 mph - N/A   Clear
3:37 PM 82.4 °F 15.8 °F 8% 29.68 in - West 19.6 mph - N/A   Clear
4:00 PM 81 °F 5 °F 4% 29.71 in - WSW 28.8 mph - -  
4:00 PM 80.6 °F 5.0 °F 6% 29.71 in - WSW 28.8 mph 40.3 mph N/A   Clear
4:30 PM 78.8 °F 8.6 °F 7% 29.71 in - WSW 26.5 mph 38.0 mph N/A   Clear
5:00 PM 78 °F 15 °F 4% 29.75 in - WSW 19.6 mph - -  
5:00 PM 78.8 °F 14.0 °F 9% 29.74 in - WSW 19.6 mph - N/A   Clear
5:05 PM 77.0 °F 15.8 °F 10% 29.74 in - WSW 17.3 mph 28.8 mph N/A   Clear
5:30 PM 75.2 °F 19.4 °F 12% 29.77 in - WSW 18.4 mph - N/A   Clear
6:00 PM 74 °F 22 °F 7% 29.80 in 19 mi WSW 21.9 mph - -   Partly Cloudy
6:00 PM 73.4 °F 21.2 °F 14% 29.80 in - WSW 21.9 mph - N/A   Clear
6:30 PM 73.4 °F 17.6 °F 12% 29.80 in - WSW 25.3 mph - N/A   Clear
7:00 PM 71 °F 25 °F 9% 29.86 in - SW 17.3 mph - -  
7:00 PM 71.6 °F 24.8 °F 17% 29.83 in - SW 17.3 mph - N/A   Clear
7:30 PM 69.8 °F 28.4 °F 21% 29.86 in - WSW 16.1 mph - N/A   Clear
8:00 PM 69 °F 27 °F 11% 29.89 in - West 12.7 mph - -  
8:00 PM 69.8 °F 26.6 °F 20% 29.89 in - West 12.7 mph - N/A   Clear
8:30 PM 68.0 °F 30.2 °F 24% 29.89 in - West 15.0 mph - N/A   Clear
9:00 PM 67 °F 33 °F 18% 29.90 in 19 mi West 17.3 mph - -   Partly Cloudy
9:00 PM 68.0 °F 33.8 °F 28% 29.89 in - West 17.3 mph - N/A   Clear
9:30 PM 66.2 °F 35.6 °F 32% 29.89 in - West 13.8 mph 27.6 mph N/A   Clear
10:00 PM 66 °F 36 °F 22% 29.90 in - West 15.0 mph - -  
10:00 PM 66.2 °F 35.6 °F 32% 29.89 in - West 15.0 mph - N/A   Clear
10:30 PM 66.2 °F 37.4 °F 35% 29.89 in - West 9.2 mph - N/A   Clear
11:00 PM 64 °F 39 °F 28% 29.91 in - WSW 10.4 mph - -  
11:00 PM 64.4 °F 39.2 °F 40% 29.89 in - WSW 10.4 mph - N/A   Clear
11:30 PM 64.4 °F 39.2 °F 40% 29.92 in - WSW 15.0 mph - N/A   Clear